LOG708 EGKK-EKCH

Flight info

Callsign LOG708
Flight time N/A
Altitude FL350
Route FRAN1Z FRANE M604 PAAVO Q295 SOMVA MAVAS ANDIK N873 JUIST ROCZO DOSUR TALSA P729 TUDLO TUDL4C
Aircraft B752/M-SDE3FHIM3RW/LB1

Departure

Time N/A
Airport London Gatwick Airport (EGKK)

Arrival

Time 2026-04-21 18:52
Airport Copenhagen Kastrup Airport (EKCH)
Time Latitude Longitude Altitude Speed Heading
2026-04-21 18:17 54.76632 9.02122 35409 ft 449 kts 48°
2026-04-21 18:18 54.78752 9.06077 35409 ft 449 kts 48°
2026-04-21 18:18 54.82984 9.13995 35410 ft 448 kts 48°
2026-04-21 18:19 54.87171 9.21980 35410 ft 448 kts 49°
2026-04-21 18:19 54.91312 9.30045 35410 ft 448 kts 49°
2026-04-21 18:20 54.95426 9.38152 35410 ft 447 kts 50°
2026-04-21 18:20 54.99521 9.46278 35410 ft 447 kts 50°
2026-04-21 18:21 55.03603 9.54413 35410 ft 447 kts 50°
2026-04-21 18:21 55.07677 9.62564 35410 ft 447 kts 50°
2026-04-21 18:22 55.11064 9.71554 35412 ft 445 kts 63°
2026-04-21 18:22 55.13413 9.81545 35412 ft 446 kts 70°
2026-04-21 18:23 55.15308 9.91831 35411 ft 446 kts 72°
2026-04-21 18:23 55.17051 10.02229 35411 ft 446 kts 73°
2026-04-21 18:24 55.18758 10.12628 35410 ft 445 kts 73°
2026-04-21 18:24 55.19617 10.17826 35284 ft 448 kts 73°
2026-04-21 18:24 55.20494 10.23094 34806 ft 455 kts 73°
2026-04-21 18:24 55.21387 10.28410 34272 ft 457 kts 73°
2026-04-21 18:25 55.22275 10.33666 33725 ft 443 kts 73°
2026-04-21 18:25 55.23138 10.38751 33154 ft 431 kts 72°
2026-04-21 18:25 55.23988 10.43738 32540 ft 425 kts 72°
2026-04-21 18:25 55.24827 10.48651 31917 ft 418 kts 72°
2026-04-21 18:26 55.25652 10.53470 31292 ft 410 kts 72°
2026-04-21 18:26 55.26463 10.58209 30667 ft 403 kts 72°
2026-04-21 18:26 55.27262 10.62862 30043 ft 396 kts 72°
2026-04-21 18:26 55.28050 10.67443 29418 ft 390 kts 72°
2026-04-21 18:27 55.28828 10.71965 28792 ft 385 kts 72°
2026-04-21 18:27 55.29592 10.76417 28169 ft 380 kts 72°
2026-04-21 18:27 55.30348 10.80831 27543 ft 376 kts 73°
2026-04-21 18:27 55.31093 10.85189 26919 ft 372 kts 73°
2026-04-21 18:28 55.31826 10.89501 26335 ft 367 kts 73°
2026-04-21 18:28 55.32550 10.93775 25760 ft 364 kts 73°
2026-04-21 18:28 55.33263 10.98005 25187 ft 361 kts 73°
2026-04-21 18:28 55.33968 11.02209 24612 ft 358 kts 73°
2026-04-21 18:29 55.34664 11.06376 24037 ft 355 kts 73°
2026-04-21 18:29 55.35352 11.10513 23462 ft 352 kts 73°
2026-04-21 18:29 55.36032 11.14613 22888 ft 349 kts 73°
2026-04-21 18:29 55.36704 11.18683 22313 ft 346 kts 73°
2026-04-21 18:30 55.37370 11.22725 21739 ft 344 kts 73°
2026-04-21 18:30 55.38030 11.26737 21165 ft 341 kts 73°
2026-04-21 18:30 55.38683 11.30723 20590 ft 339 kts 73°
2026-04-21 18:30 55.39331 11.34684 20015 ft 336 kts 73°
2026-04-21 18:31 55.39973 11.38620 19441 ft 334 kts 73°
2026-04-21 18:31 55.40610 11.42537 18865 ft 332 kts 73°
2026-04-21 18:31 55.41240 11.46415 18292 ft 330 kts 73°
2026-04-21 18:31 55.41865 11.50275 17718 ft 327 kts 73°
2026-04-21 18:32 55.42485 11.54111 17143 ft 325 kts 73°
2026-04-21 18:32 55.43180 11.57869 16559 ft 323 kts 69°
2026-04-21 18:32 55.44236 11.61339 15988 ft 322 kts 59°
2026-04-21 18:32 55.45547 11.64529 15418 ft 321 kts 53°
2026-04-21 18:33 55.47004 11.67480 14847 ft 319 kts 49°
2026-04-21 18:33 55.48551 11.70265 14276 ft 317 kts 46°
2026-04-21 18:33 55.50144 11.72931 13704 ft 315 kts 44°
2026-04-21 18:33 55.51757 11.75517 13129 ft 313 kts 43°
2026-04-21 18:34 55.53375 11.78050 12570 ft 310 kts 43°
2026-04-21 18:34 55.54968 11.80516 12455 ft 302 kts 42°
2026-04-21 18:34 55.56546 11.82955 12419 ft 302 kts 42°
2026-04-21 18:34 55.58127 11.85406 12412 ft 304 kts 42°
2026-04-21 18:35 55.59183 11.87051 12412 ft 304 kts 42°
2026-04-21 18:35 55.61289 11.90349 12411 ft 304 kts 43°
2026-04-21 18:35 55.62869 11.92837 12411 ft 305 kts 43°
2026-04-21 18:35 55.64446 11.95328 12410 ft 305 kts 43°
2026-04-21 18:36 55.66022 11.97823 12410 ft 302 kts 43°
2026-04-21 18:36 55.67537 12.00221 12404 ft 282 kts 43°
2026-04-21 18:36 55.68958 12.02472 12403 ft 268 kts 43°
2026-04-21 18:36 55.70323 12.04641 12406 ft 261 kts 43°
2026-04-21 18:37 55.71647 12.06794 12401 ft 257 kts 45°
2026-04-21 18:37 55.72590 12.09437 12404 ft 256 kts 63°
2026-04-21 18:37 55.73067 12.12491 12419 ft 260 kts 76°
2026-04-21 18:37 55.73221 12.15682 12416 ft 261 kts 85°
2026-04-21 18:38 55.73164 12.18879 12413 ft 259 kts 90°
2026-04-21 18:38 55.72987 12.22050 12411 ft 258 kts 94°
2026-04-21 18:38 55.72754 12.25195 12410 ft 257 kts 95°
2026-04-21 18:38 55.72523 12.28322 12408 ft 256 kts 95°
2026-04-21 18:39 55.72305 12.31441 12408 ft 255 kts 94°
2026-04-21 18:39 55.72096 12.34553 12410 ft 254 kts 94°
2026-04-21 18:39 55.71893 12.37657 12408 ft 254 kts 94°
2026-04-21 18:39 55.71695 12.40758 12404 ft 254 kts 94°
2026-04-21 18:40 55.71496 12.43940 11852 ft 264 kts 94°
2026-04-21 18:40 55.71353 12.47126 11291 ft 256 kts 90°
2026-04-21 18:40 55.71420 12.49189 10926 ft 250 kts 84°
2026-04-21 18:40 55.71895 12.53145 10199 ft 244 kts 73°
2026-04-21 18:41 55.72468 12.55960 9650 ft 241 kts 68°
2026-04-21 18:41 55.73152 12.58656 9102 ft 238 kts 64°
2026-04-21 18:41 55.73918 12.61233 8545 ft 236 kts 59°
2026-04-21 18:41 55.74869 12.63582 8000 ft 234 kts 52°
2026-04-21 18:42 55.75940 12.65724 7454 ft 231 kts 47°
2026-04-21 18:42 55.77064 12.67703 6905 ft 226 kts 44°
2026-04-21 18:42 55.78205 12.69567 6355 ft 221 kts 42°
2026-04-21 18:42 55.79341 12.71359 5805 ft 217 kts 41°
2026-04-21 18:43 55.80453 12.73122 5255 ft 213 kts 41°
2026-04-21 18:43 55.81538 12.74868 4704 ft 209 kts 41°
2026-04-21 18:43 55.82594 12.76594 4157 ft 205 kts 41°
2026-04-21 18:43 55.83586 12.78251 4015 ft 190 kts 41°
2026-04-21 18:44 55.84539 12.79862 3991 ft 190 kts 41°
2026-04-21 18:44 55.85499 12.81490 3987 ft 193 kts 41°
2026-04-21 18:44 55.86472 12.83139 3985 ft 195 kts 41°
2026-04-21 18:44 55.87470 12.84829 3731 ft 206 kts 41°
2026-04-21 18:45 55.88469 12.86655 3199 ft 208 kts 47°
2026-04-21 18:45 55.88909 12.89048 2973 ft 205 kts 77°
2026-04-21 18:45 55.88560 12.91595 2992 ft 223 kts 107°
2026-04-21 18:45 55.87608 12.93785 3054 ft 227 kts 127°
2026-04-21 18:46 55.86495 12.95772 2998 ft 225 kts 133°
2026-04-21 18:46 55.85384 12.97680 2967 ft 222 kts 135°
2026-04-21 18:46 55.84002 12.98880 2934 ft 226 kts 160°
2026-04-21 18:46 55.82398 12.98791 2981 ft 239 kts 188°
2026-04-21 18:47 55.80974 12.97457 2971 ft 228 kts 216°
2026-04-21 18:47 55.80033 12.95269 3032 ft 222 kts 238°
2026-04-21 18:47 55.79240 12.92972 2982 ft 212 kts 240°
2026-04-21 18:47 55.78336 12.90984 2972 ft 206 kts 233°
2026-04-21 18:48 55.77286 12.89216 2987 ft 211 kts 226°
2026-04-21 18:48 55.76154 12.87542 2986 ft 213 kts 222°
2026-04-21 18:48 55.75001 12.85894 2984 ft 213 kts 221°
2026-04-21 18:48 55.73857 12.84235 2966 ft 214 kts 222°
2026-04-21 18:49 55.72742 12.82567 2685 ft 206 kts 223°
2026-04-21 18:49 55.71694 12.80956 2378 ft 194 kts 223°
2026-04-21 18:49 55.71029 12.79918 2204 ft 189 kts 223°
2026-04-21 18:49 55.69744 12.77912 1879 ft 181 kts 223°
2026-04-21 18:50 55.68830 12.76497 1650 ft 169 kts 223°
2026-04-21 18:50 55.67955 12.75138 1457 ft 167 kts 223°
2026-04-21 18:50 55.67100 12.73792 1236 ft 164 kts 222°
2026-04-21 18:50 55.66280 12.72502 1032 ft 153 kts 221°
2026-04-21 18:51 55.65483 12.71293 814 ft 149 kts 220°
2026-04-21 18:51 55.64714 12.70107 618 ft 146 kts 221°
2026-04-21 18:51 55.63960 12.68938 427 ft 143 kts 221°
2026-04-21 18:51 55.63213 12.67796 241 ft 141 kts 220°
2026-04-21 18:52 55.62477 12.66657 61 ft 137 kts 221°
2026-04-21 18:52 55.61877 12.65721 26 ft 74 kts 221°
2026-04-21 18:52 55.61662 12.65384 26 ft 28 kts 224°
2026-04-21 18:52 55.61609 12.65123 26 ft 17 kts 276°
2026-04-21 18:53 55.61659 12.64922 26 ft 27 kts 304°
2026-04-21 18:53 55.61803 12.64779 26 ft 18 kts
2026-04-21 18:53 55.61862 12.64795 26 ft 3 kts 16°
2026-04-21 18:53 55.61866 12.64798 26 ft 0 kts 17°
2026-04-21 18:54 55.61881 12.64809 26 ft 2 kts 23°
2026-04-21 18:54 55.61883 12.64810 26 ft 0 kts 23°
2026-04-21 18:55 55.61899 12.64824 26 ft 12 kts 25°
2026-04-21 18:56 55.61988 12.64915 26 ft 10 kts 34°
2026-04-21 18:56 55.62047 12.64979 26 ft 12 kts 28°
2026-04-21 18:56 55.62158 12.65114 26 ft 19 kts 33°
2026-04-21 18:56 55.62277 12.65194 26 ft 20 kts
2026-04-21 18:57 55.62332 12.65191 26 ft 0 kts 354°
2026-04-21 18:57 55.62333 12.65191 26 ft 0 kts 354°
2026-04-21 18:57 55.62436 12.65185 26 ft 19 kts 358°
2026-04-21 18:57 55.62550 12.65180 26 ft 12 kts 358°
2026-04-21 18:58 55.62572 12.65110 26 ft 6 kts 265°
2026-04-21 18:58 55.62572 12.65050 26 ft 2 kts 270°
2026-04-21 18:58 55.62572 12.65041 26 ft 0 kts 268°